Terminal Aerodrome Forecast
Issued by NWS Binghamton, NY

Home | Current Version | Previous Version | Text Only | Print | Product List | Glossary On
Versions: 1 2 3 4 5 6 7 8 9 10 11 12 13 14 15 16 17 18 19
000
FTUS41 KBGM 242323 AAA
TAFAVP
TAF AMD
KAVP 242323Z 2423/2524 25010KT P6SM BKN080
     FM250400 25004KT P6SM SCT080
     FM251500 26010G15KT P6SM SCT060=

USA.gov is the U.S. government's official web portal to all federal, state and local government web resources and services.